EZY1923 EGPH-EIDW

Flight info

Callsign EZY1923
Flight time 0h 51m
Altitude 22000
Route GOSAM P600 BLACA P620 NIMAT NIMAT3R
Aircraft A20N/M-SDE2E3FGHIRWXY/LB1

Departure

Time 2026-04-20 19:09
Airport Edinburgh Airport (EGPH)

Arrival

Time 2026-04-20 20:00
Airport Dublin Airport (EIDW)
Time Latitude Longitude Altitude Speed Heading
2026-04-20 18:50 55.94752 -3.36604 112 ft 0 kts 89°
2026-04-20 18:58 55.94751 -3.36627 116 ft 2 kts 88°
2026-04-20 18:58 55.94751 -3.36656 115 ft 2 kts 87°
2026-04-20 18:58 55.94750 -3.36685 111 ft 2 kts 84°
2026-04-20 18:58 55.94747 -3.36714 111 ft 2 kts 74°
2026-04-20 18:59 55.94739 -3.36738 111 ft 2 kts
2026-04-20 18:59 55.94734 -3.36738 111 ft 0 kts 359°
2026-04-20 19:03 55.94740 -3.36739 113 ft 3 kts 356°
2026-04-20 19:03 55.94768 -3.36765 113 ft 7 kts 327°
2026-04-20 19:03 55.94826 -3.36779 116 ft 10 kts 359°
2026-04-20 19:04 55.94900 -3.36807 114 ft 12 kts 330°
2026-04-20 19:04 55.94912 -3.36937 113 ft 14 kts 240°
2026-04-20 19:04 55.94855 -3.37105 113 ft 18 kts 238°
2026-04-20 19:04 55.94786 -3.37308 114 ft 19 kts 239°
2026-04-20 19:05 55.94724 -3.37493 114 ft 19 kts 238°
2026-04-20 19:05 55.94649 -3.37714 116 ft 20 kts 238°
2026-04-20 19:05 55.94575 -3.37933 114 ft 18 kts 238°
2026-04-20 19:05 55.94505 -3.38139 115 ft 21 kts 239°
2026-04-20 19:06 55.94442 -3.38325 112 ft 19 kts 239°
2026-04-20 19:06 55.94380 -3.38505 113 ft 18 kts 238°
2026-04-20 19:06 55.94314 -3.38700 114 ft 17 kts 238°
2026-04-20 19:06 55.94284 -3.38851 114 ft 12 kts 293°
2026-04-20 19:07 55.94343 -3.38927 114 ft 11 kts 329°
2026-04-20 19:07 55.94422 -3.38950 111 ft 13 kts 43°
2026-04-20 19:07 55.94439 -3.38903 113 ft 0 kts 59°
2026-04-20 19:08 55.94597 -3.38437 110 ft 90 kts 59°
2026-04-20 19:08 55.95037 -3.37132 368 ft 138 kts 59°
2026-04-20 19:09 55.95542 -3.35607 1174 ft 146 kts 60°
2026-04-20 19:09 55.96068 -3.34043 2185 ft 150 kts 60°
2026-04-20 19:09 55.96817 -3.32596 2905 ft 169 kts 41°
2026-04-20 19:09 55.97472 -3.31738 3337 ft 185 kts 37°
2026-04-20 19:10 55.98594 -3.30317 3971 ft 209 kts 38°
2026-04-20 19:10 55.99806 -3.28665 4733 ft 229 kts 36°
2026-04-20 19:10 56.01369 -3.27673 5494 ft 252 kts
2026-04-20 19:10 56.03133 -3.28234 6422 ft 266 kts 337°
2026-04-20 19:11 56.04599 -3.30296 7451 ft 275 kts 309°
2026-04-20 19:11 56.05428 -3.33423 8408 ft 285 kts 281°
2026-04-20 19:11 56.05412 -3.36930 9378 ft 290 kts 254°
2026-04-20 19:11 56.04542 -3.40179 10385 ft 291 kts 230°
2026-04-20 19:12 56.03260 -3.43086 11123 ft 308 kts 230°
2026-04-20 19:12 56.02050 -3.46431 11560 ft 332 kts 240°
2026-04-20 19:12 56.01094 -3.50318 12192 ft 347 kts 248°
2026-04-20 19:12 56.00353 -3.54450 13138 ft 353 kts 252°
2026-04-20 19:13 55.99706 -3.58727 14038 ft 359 kts 253°
2026-04-20 19:13 55.99086 -3.63082 14894 ft 364 kts 254°
2026-04-20 19:13 55.98466 -3.67427 15709 ft 368 kts 253°
2026-04-20 19:13 55.97824 -3.71876 16522 ft 372 kts 253°
2026-04-20 19:14 55.97165 -3.76386 17332 ft 376 kts 253°
2026-04-20 19:14 55.96495 -3.80937 18140 ft 381 kts 253°
2026-04-20 19:14 55.95814 -3.85538 18896 ft 385 kts 253°
2026-04-20 19:14 55.95124 -3.90179 19623 ft 388 kts 253°
2026-04-20 19:15 55.94425 -3.94861 20343 ft 392 kts 253°
2026-04-20 19:15 55.93619 -3.99501 21109 ft 391 kts 243°
2026-04-20 19:15 55.92178 -4.03592 21779 ft 390 kts 226°
2026-04-20 19:15 55.90181 -4.06850 22160 ft 390 kts 214°
2026-04-20 19:16 55.87948 -4.09582 22315 ft 389 kts 210°
2026-04-20 19:16 55.85656 -4.12164 22369 ft 389 kts 210°
2026-04-20 19:16 55.83400 -4.14722 22368 ft 389 kts 210°
2026-04-20 19:16 55.81133 -4.17358 22369 ft 389 kts 211°
2026-04-20 19:17 55.78882 -4.20033 22369 ft 390 kts 211°
2026-04-20 19:17 55.76646 -4.22754 22368 ft 390 kts 212°
2026-04-20 19:17 55.74423 -4.25520 22368 ft 390 kts 212°
2026-04-20 19:17 55.72205 -4.28293 22367 ft 390 kts 212°
2026-04-20 19:18 55.69983 -4.31061 22367 ft 389 kts 213°
2026-04-20 19:18 55.67772 -4.33806 22363 ft 387 kts 213°
2026-04-20 19:18 55.65556 -4.36552 22361 ft 388 kts 213°
2026-04-20 19:18 55.63343 -4.39286 22358 ft 388 kts 213°
2026-04-20 19:19 55.61126 -4.42019 22355 ft 388 kts 213°
2026-04-20 19:19 55.58911 -4.44748 22351 ft 387 kts 212°
2026-04-20 19:19 55.56696 -4.47469 22357 ft 387 kts 213°
2026-04-20 19:19 55.54488 -4.50179 22346 ft 386 kts 213°
2026-04-20 19:20 55.52279 -4.52890 22345 ft 386 kts 213°
2026-04-20 19:20 55.50100 -4.55557 22346 ft 387 kts 213°
2026-04-20 19:20 55.47887 -4.58261 22346 ft 387 kts 213°
2026-04-20 19:20 55.45677 -4.60960 22346 ft 386 kts 212°
2026-04-20 19:21 55.43470 -4.63652 22346 ft 387 kts 213°
2026-04-20 19:21 55.41265 -4.66329 22345 ft 383 kts 214°
2026-04-20 19:21 55.39078 -4.68989 22334 ft 382 kts 214°
2026-04-20 19:21 55.36892 -4.71645 22330 ft 382 kts 214°
2026-04-20 19:22 55.34697 -4.74308 22331 ft 385 kts 214°
2026-04-20 19:22 55.32494 -4.76977 22329 ft 383 kts 213°
2026-04-20 19:22 55.30223 -4.79389 22331 ft 381 kts 207°
2026-04-20 19:22 55.27841 -4.81476 22330 ft 383 kts 206°
2026-04-20 19:23 55.25450 -4.83568 22324 ft 384 kts 206°
2026-04-20 19:23 55.23072 -4.85654 22322 ft 381 kts 206°
2026-04-20 19:23 55.20699 -4.87736 22323 ft 382 kts 206°
2026-04-20 19:23 55.18316 -4.89825 22322 ft 384 kts 206°
2026-04-20 19:24 55.15931 -4.91912 22312 ft 383 kts 207°
2026-04-20 19:24 55.13541 -4.93996 22319 ft 383 kts 207°
2026-04-20 19:24 55.11175 -4.96056 22321 ft 384 kts 208°
2026-04-20 19:24 55.08784 -4.98140 22319 ft 384 kts 208°
2026-04-20 19:25 55.06392 -5.00225 22317 ft 384 kts 208°
2026-04-20 19:25 55.04001 -5.02305 22317 ft 384 kts 208°
2026-04-20 19:25 55.01610 -5.04383 22314 ft 384 kts 208°
2026-04-20 19:25 54.99219 -5.06457 22314 ft 384 kts 208°
2026-04-20 19:26 54.96830 -5.08527 22317 ft 384 kts 208°
2026-04-20 19:26 54.94434 -5.10599 22313 ft 384 kts 207°
2026-04-20 19:26 54.92037 -5.12670 22314 ft 384 kts 207°
2026-04-20 19:26 54.89630 -5.14694 22298 ft 385 kts 205°
2026-04-20 19:27 54.87103 -5.16275 22314 ft 388 kts 198°
2026-04-20 19:27 54.84466 -5.17334 22312 ft 389 kts 194°
2026-04-20 19:27 54.81813 -5.18291 22312 ft 389 kts 194°
2026-04-20 19:27 54.79170 -5.19253 22311 ft 389 kts 194°
2026-04-20 19:28 54.76517 -5.20225 22317 ft 389 kts 194°
2026-04-20 19:28 54.73870 -5.21196 22316 ft 389 kts 194°
2026-04-20 19:28 54.71221 -5.22168 22317 ft 389 kts 194°
2026-04-20 19:28 54.68607 -5.23127 22316 ft 389 kts 194°
2026-04-20 19:29 54.65955 -5.24098 22317 ft 389 kts 194°
2026-04-20 19:29 54.63305 -5.25067 22297 ft 389 kts 194°
2026-04-20 19:29 54.60643 -5.26040 22315 ft 392 kts 194°
2026-04-20 19:29 54.57969 -5.27015 22315 ft 392 kts 194°
2026-04-20 19:30 54.55302 -5.27986 22315 ft 392 kts 194°
2026-04-20 19:30 54.52636 -5.28956 22310 ft 392 kts 194°
2026-04-20 19:30 54.49983 -5.30013 22308 ft 390 kts 199°
2026-04-20 19:30 54.47429 -5.31594 22312 ft 388 kts 206°
2026-04-20 19:31 54.45006 -5.33620 22316 ft 387 kts 209°
2026-04-20 19:31 54.42595 -5.35685 22315 ft 387 kts 209°
2026-04-20 19:31 54.40184 -5.37732 22311 ft 388 kts 209°
2026-04-20 19:31 54.37751 -5.39791 22295 ft 388 kts 209°
2026-04-20 19:32 54.35353 -5.41816 22309 ft 391 kts 209°
2026-04-20 19:32 54.32911 -5.43873 22317 ft 390 kts 209°
2026-04-20 19:32 54.30473 -5.45921 22306 ft 390 kts 209°
2026-04-20 19:32 54.28033 -5.47969 22313 ft 390 kts 209°
2026-04-20 19:33 54.25594 -5.50012 22306 ft 390 kts 209°
2026-04-20 19:33 54.23154 -5.52055 22304 ft 390 kts 209°
2026-04-20 19:33 54.20718 -5.54091 22305 ft 390 kts 209°
2026-04-20 19:33 54.18276 -5.56130 22245 ft 391 kts 209°
2026-04-20 19:34 54.15836 -5.58164 21982 ft 389 kts 209°
2026-04-20 19:34 54.13404 -5.60189 21716 ft 387 kts 209°
2026-04-20 19:34 54.10989 -5.62198 21419 ft 386 kts 209°
2026-04-20 19:34 54.08571 -5.64209 21154 ft 387 kts 208°
2026-04-20 19:35 54.06149 -5.66221 20891 ft 385 kts 208°
2026-04-20 19:35 54.03745 -5.68215 20636 ft 384 kts 208°
2026-04-20 19:35 54.01345 -5.70205 20387 ft 382 kts 208°
2026-04-20 19:35 53.98986 -5.72136 20124 ft 382 kts 206°
2026-04-20 19:36 53.96476 -5.73631 19872 ft 383 kts 197°
2026-04-20 19:36 53.93851 -5.74415 19622 ft 384 kts 187°
2026-04-20 19:36 53.91174 -5.74623 19375 ft 383 kts 184°
2026-04-20 19:36 53.88509 -5.74792 18895 ft 384 kts 184°
2026-04-20 19:37 53.85837 -5.74974 18307 ft 383 kts 184°
2026-04-20 19:37 53.83192 -5.75160 17744 ft 378 kts 184°
2026-04-20 19:37 53.80627 -5.75340 17199 ft 372 kts 184°
2026-04-20 19:37 53.78053 -5.75522 16659 ft 367 kts 184°
2026-04-20 19:38 53.75548 -5.75700 16121 ft 363 kts 184°
2026-04-20 19:38 53.73035 -5.75878 15588 ft 359 kts 184°
2026-04-20 19:38 53.70550 -5.76053 15047 ft 356 kts 184°
2026-04-20 19:38 53.68104 -5.76449 14523 ft 350 kts 196°
2026-04-20 19:39 53.65919 -5.78117 14000 ft 343 kts 217°
2026-04-20 19:39 53.64299 -5.80981 13476 ft 336 kts 239°
2026-04-20 19:39 53.63428 -5.84566 12989 ft 329 kts 257°
2026-04-20 19:39 53.62938 -5.88311 12503 ft 325 kts 258°
2026-04-20 19:40 53.62460 -5.92002 12023 ft 321 kts 258°
2026-04-20 19:40 53.61985 -5.95623 11555 ft 318 kts 257°
2026-04-20 19:40 53.61504 -5.99244 11081 ft 315 kts 257°
2026-04-20 19:40 53.61025 -6.02826 10635 ft 312 kts 257°
2026-04-20 19:41 53.60553 -6.06324 10494 ft 299 kts 256°
2026-04-20 19:41 53.60099 -6.09679 10267 ft 289 kts 256°
2026-04-20 19:41 53.59659 -6.12923 10011 ft 280 kts 256°
2026-04-20 19:41 53.59216 -6.16167 9882 ft 286 kts 256°
2026-04-20 19:42 53.58772 -6.19420 9621 ft 285 kts 256°
2026-04-20 19:42 53.58331 -6.22658 9262 ft 283 kts 256°
2026-04-20 19:42 53.57888 -6.25872 8879 ft 280 kts 257°
2026-04-20 19:42 53.57451 -6.29049 8534 ft 277 kts 257°
2026-04-20 19:43 53.57034 -6.32073 8377 ft 260 kts 257°
2026-04-20 19:43 53.56766 -6.34953 8304 ft 243 kts 274°
2026-04-20 19:43 53.57279 -6.37676 8306 ft 249 kts 304°
2026-04-20 19:43 53.58533 -6.39642 8304 ft 248 kts 330°
2026-04-20 19:44 53.60043 -6.41047 8302 ft 247 kts 334°
2026-04-20 19:44 53.61581 -6.42368 8301 ft 248 kts 334°
2026-04-20 19:44 53.63112 -6.43690 8299 ft 247 kts 333°
2026-04-20 19:44 53.64577 -6.45203 8302 ft 248 kts 320°
2026-04-20 19:45 53.65679 -6.47424 8302 ft 249 kts 301°
2026-04-20 19:45 53.66543 -6.49969 8301 ft 250 kts 300°
2026-04-20 19:45 53.67412 -6.52498 8298 ft 248 kts 300°
2026-04-20 19:45 53.68279 -6.55006 8300 ft 248 kts 301°
2026-04-20 19:46 53.69151 -6.57523 8301 ft 248 kts 299°
2026-04-20 19:46 53.69746 -6.60202 8300 ft 248 kts 280°
2026-04-20 19:46 53.69821 -6.63106 8305 ft 249 kts 268°
2026-04-20 19:46 53.69781 -6.66034 8306 ft 249 kts 269°
2026-04-20 19:47 53.69751 -6.68956 8297 ft 250 kts 269°
2026-04-20 19:47 53.69725 -6.71886 8292 ft 249 kts 269°
2026-04-20 19:47 53.69654 -6.74798 8293 ft 250 kts 261°
2026-04-20 19:47 53.69113 -6.77562 8296 ft 249 kts 240°
2026-04-20 19:48 53.68188 -6.80059 8295 ft 250 kts 237°
2026-04-20 19:48 53.67263 -6.82529 8299 ft 249 kts 238°
2026-04-20 19:48 53.66344 -6.84998 8297 ft 248 kts 238°
2026-04-20 19:48 53.65427 -6.87473 8290 ft 251 kts 238°
2026-04-20 19:49 53.64354 -6.89775 8293 ft 249 kts 221°
2026-04-20 19:49 53.62903 -6.91370 8296 ft 251 kts 205°
2026-04-20 19:49 53.61345 -6.92675 8295 ft 248 kts 206°
2026-04-20 19:49 53.59795 -6.93976 8294 ft 249 kts 202°
2026-04-20 19:50 53.58118 -6.94466 8290 ft 246 kts 172°
2026-04-20 19:50 53.56554 -6.93498 8285 ft 245 kts 143°
2026-04-20 19:50 53.55465 -6.91328 8082 ft 244 kts 112°
2026-04-20 19:50 53.55113 -6.88568 7756 ft 241 kts 93°
2026-04-20 19:51 53.55032 -6.85769 7303 ft 238 kts 90°
2026-04-20 19:51 53.54975 -6.83026 6901 ft 235 kts 91°
2026-04-20 19:51 53.54888 -6.80276 6453 ft 232 kts 92°
2026-04-20 19:51 53.54772 -6.77566 6223 ft 235 kts 93°
2026-04-20 19:52 53.54635 -6.74868 6114 ft 227 kts 93°
2026-04-20 19:52 53.54496 -6.72258 5836 ft 221 kts 95°
2026-04-20 19:52 53.54162 -6.69767 5410 ft 219 kts 118°
2026-04-20 19:52 53.53122 -6.67972 5133 ft 221 kts 151°
2026-04-20 19:53 53.51647 -6.67369 4843 ft 223 kts 183°
2026-04-20 19:53 53.50109 -6.67697 4542 ft 222 kts 186°
2026-04-20 19:53 53.48604 -6.68072 4310 ft 215 kts 183°
2026-04-20 19:53 53.47181 -6.67627 3980 ft 209 kts 147°
2026-04-20 19:54 53.46201 -6.65880 3802 ft 208 kts 116°
2026-04-20 19:54 53.45745 -6.63565 3893 ft 211 kts 100°
2026-04-20 19:54 53.45540 -6.61140 3984 ft 203 kts 95°
2026-04-20 19:54 53.45422 -6.58843 3916 ft 189 kts 95°
2026-04-20 19:55 53.45304 -6.56727 3682 ft 176 kts 95°
2026-04-20 19:55 53.45194 -6.54734 3452 ft 172 kts 95°
2026-04-20 19:55 53.45083 -6.52730 3213 ft 171 kts 95°
2026-04-20 19:55 53.44974 -6.50762 2976 ft 165 kts 95°
2026-04-20 19:56 53.44905 -6.49520 2844 ft 157 kts 95°
2026-04-20 19:56 53.44778 -6.47222 2574 ft 137 kts 95°
2026-04-20 19:56 53.44695 -6.45729 2384 ft 123 kts 95°
2026-04-20 19:56 53.44617 -6.44309 2217 ft 123 kts 95°
2026-04-20 19:57 53.44539 -6.42905 2044 ft 120 kts 95°
2026-04-20 19:57 53.44461 -6.41502 1872 ft 122 kts 95°
2026-04-20 19:57 53.44384 -6.40101 1705 ft 119 kts 95°
2026-04-20 19:57 53.44307 -6.38710 1531 ft 120 kts 95°
2026-04-20 19:58 53.44232 -6.37357 1376 ft 115 kts 95°
2026-04-20 19:58 53.44159 -6.36025 1201 ft 115 kts 95°
2026-04-20 19:58 53.44109 -6.35130 1097 ft 117 kts 95°
2026-04-20 19:58 53.44011 -6.33357 886 ft 115 kts 95°
2026-04-20 19:59 53.43936 -6.32016 732 ft 115 kts 95°
2026-04-20 19:59 53.43862 -6.30676 577 ft 117 kts 95°
2026-04-20 19:59 53.43810 -6.29770 433 ft 113 kts 95°
2026-04-20 19:59 53.43737 -6.28467 292 ft 112 kts 95°
2026-04-20 20:00 53.43666 -6.27190 211 ft 106 kts 95°
2026-04-20 20:00 53.43618 -6.26272 212 ft 60 kts 95°
2026-04-20 20:00 53.43582 -6.25624 208 ft 52 kts 96°
2026-04-20 20:00 53.43496 -6.25135 211 ft 31 kts 120°
2026-04-20 20:01 53.43418 -6.24987 211 ft 13 kts 185°
2026-04-20 20:01 53.43383 -6.25118 213 ft 15 kts 274°
2026-04-20 20:01 53.43392 -6.25297 214 ft 17 kts 275°
2026-04-20 20:01 53.43404 -6.25506 210 ft 16 kts 276°
2026-04-20 20:02 53.43368 -6.25651 213 ft 13 kts 187°
2026-04-20 20:02 53.43282 -6.25598 214 ft 14 kts 155°
2026-04-20 20:02 53.43182 -6.25524 213 ft 17 kts 158°
2026-04-20 20:02 53.43064 -6.25440 213 ft 20 kts 157°
2026-04-20 20:03 53.42948 -6.25341 212 ft 14 kts 125°
2026-04-20 20:03 53.42961 -6.25222 212 ft 12 kts 81°
2026-04-20 20:03 53.42956 -6.25084 215 ft 12 kts 96°
2026-04-20 20:03 53.42949 -6.24954 212 ft 11 kts 94°
2026-04-20 20:04 53.42946 -6.24837 211 ft 4 kts 70°
2026-04-20 20:04 53.42973 -6.24817 211 ft 6 kts 11°
2026-04-20 20:04 53.43000 -6.24812 211 ft 1 kts
2026-04-20 20:04 53.43004 -6.24812 211 ft 0 kts